Terminal Aerodrome Forecast
Issued by NWS Pittsburgh, PA

Current Version | Previous Version | Text Only | Print | Product List | Glossary Off
Versions: 1 2 3 4 5 6 7 8 9 10 11 12 13 14 15 16 17 18 19 20 21 22 23 24 25 26 27 28 29 30 31 32 33 34 35 36 37 38 39

000
FTUS41 KPBZ 270500
TAFPIT
TAF
KPIT 270523Z 2706/2812 21006KT 6SM -SHRA BKN040 OVC080
      TEMPO 2706/2709 5SM -SHRA BR BKN020
     FM271600 23008KT 6SM -SHRA VCTS OVC035CB
     FM272300 25006KT P6SM VCSH BKN035=

USA.gov is the U.S. government's official web portal to all federal, state and local government web resources and services.